| time (UTC) | temp F | wind direction | speed knots | gust knots | rain 1hr in | rain 24hr in | rain mn in | humidity % | barometer mb |
| 20260508114550 | 70 | 163 | 5.2 | 0.0 | 0.00 | 0.00 | 0.00 | 44 | 1015.0 |
| 20260508113122 | 70 | 177 | 4.3 | 0.0 | 0.00 | 0.00 | 0.00 | 43 | 1014.9 |
| 20260508111549 | 70 | 140 | 4.3 | 0.0 | 0.00 | 0.00 | 0.00 | 45 | 1015.3 |
| 20260508110049 | 70 | 230 | 2.6 | 0.0 | 0.00 | 0.00 | 0.00 | 44 | 1015.7 |
| 20260508104555 | 70 | 190 | 4.3 | 0.0 | 0.00 | 0.00 | 0.00 | 45 | 1015.8 |
| 20260508103050 | 70 | 181 | 4.3 | 0.0 | 0.00 | 0.00 | 0.00 | 46 | 1016.0 |
| 20260508101549 | 70 | 123 | 4.3 | 0.0 | 0.00 | 0.00 | 0.00 | 45 | 1015.8 |
| 20260508100045 | 69 | 152 | 3.5 | 0.0 | 0.00 | 0.00 | 0.00 | 46 | 1016.2 |
| 20260508094542 | 69 | 163 | 4.3 | 0.0 | 0.00 | 0.00 | 0.00 | 47 | 1016.7 |
| 20260508093041 | 68 | 126 | 5.2 | 0.0 | 0.00 | 0.00 | 0.00 | 47 | 1016.7 |
| 20260508091545 | 68 | 203 | 4.3 | 0.0 | 0.00 | 0.00 | 0.00 | 51 | 1017.1 |
| 20260508090045 | 68 | 162 | 3.5 | 0.0 | 0.00 | 0.00 | 0.00 | 51 | 1017.0 |
| 20260508084538 | 68 | 165 | 5.2 | 0.0 | 0.00 | 0.00 | 0.00 | 50 | 1017.1 |
| 20260508083039 | 68 | 164 | 4.3 | 0.0 | 0.00 | 0.00 | 0.00 | 49 | 1017.2 |
| 20260508081539 | 68 | 148 | 3.5 | 0.0 | 0.00 | 0.00 | 0.00 | 47 | 1017.0 |
| 20260508080045 | 68 | 131 | 4.3 | 0.0 | 0.00 | 0.00 | 0.00 | 47 | 1017.2 |
| 20260508074534 | 67 | 150 | 6.1 | 0.0 | 0.00 | 0.00 | 0.00 | 45 | 1017.1 |
| 20260508073033 | 66 | 199 | 4.3 | 0.0 | 0.00 | 0.00 | 0.00 | 46 | 1017.4 |
| 20260508071532 | 66 | 136 | 4.3 | 0.0 | 0.00 | 0.00 | 0.00 | 45 | 1017.4 |
| 20260508070031 | 66 | 179 | 3.5 | 0.0 | 0.00 | 0.00 | 0.00 | 44 | 1018.0 |
| 20260508064551 | 66 | 221 | 3.5 | 0.0 | 0.00 | 0.00 | 0.00 | 42 | 1017.8 |
| 20260508063029 | 67 | 167 | 2.6 | 0.0 | 0.00 | 0.00 | 0.00 | 39 | 1017.5 |
| 20260508061525 | 67 | 194 | 1.7 | 0.0 | 0.00 | 0.00 | 0.00 | 37 | 1017.4 |
| 20260508060031 | 67 | 173 | 4.3 | 0.0 | 0.00 | 0.00 | 0.00 | 33 | 1017.0 |
| 20260508054534 | 67 | 177 | 3.5 | 0.0 | 0.00 | 0.00 | 0.00 | 34 | 1016.3 |
| 20260508053020 | 66 | 103 | 0.0 | 0.0 | 0.00 | 0.00 | 0.00 | 39 | 1016.0 |
| 20260508051525 | 66 | 88 | 0.0 | 0.0 | 0.00 | 0.00 | 0.00 | 40 | 1015.7 |
| 20260508050031 | 66 | 88 | 0.0 | 0.0 | 0.00 | 0.00 | 0.00 | 42 | 1015.5 |
| 20260508044520 | 66 | 88 | 0.9 | 0.0 | 0.00 | 0.00 | 0.00 | 45 | 1015.6 |
| 20260508043020 | 65 | 24 | 0.0 | 0.0 | 0.00 | 0.00 | 0.00 | 49 | 1015.5 |
| 20260508041517 | 65 | 24 | 0.0 | 0.0 | 0.00 | 0.00 | 0.00 | 52 | 1015.0 |
| 20260508040017 | 65 | 26 | 0.0 | 0.0 | 0.00 | 0.00 | 0.00 | 50 | 1014.7 |
| 20260508034524 | 65 | 26 | 0.0 | 0.0 | 0.00 | 0.00 | 0.00 | 47 | 1014.5 |
| 20260508033016 | 64 | 26 | 0.0 | 0.0 | 0.00 | 0.00 | 0.00 | 51 | 1014.4 |
| 20260508031516 | 65 | 26 | 0.0 | 0.0 | 0.00 | 0.00 | 0.00 | 52 | 1014.6 |
| 20260508030016 | 65 | 26 | 0.0 | 0.0 | 0.00 | 0.00 | 0.00 | 55 | 1014.5 |
| 20260508024519 | 65 | 142 | 0.0 | 0.0 | 0.00 | 0.00 | 0.00 | 53 | 1014.5 |
| 20260508023014 | 66 | 147 | 0.0 | 0.0 | 0.00 | 0.00 | 0.00 | 51 | 1014.6 |
| 20260508021513 | 67 | 147 | 0.0 | 0.0 | 0.00 | 0.00 | 0.00 | 45 | 1014.7 |
| 20260508020013 | 67 | 147 | 0.0 | 0.0 | 0.00 | 0.00 | 0.00 | 38 | 1014.7 |
| 20260508014511 | 67 | 146 | 2.6 | 0.0 | 0.00 | 0.00 | 0.00 | 39 | 1014.6 |
| 20260508013008 | 66 | 132 | 1.7 | 0.0 | 0.00 | 0.00 | 0.00 | 40 | 1014.8 |
| 20260508011506 | 65 | 87 | 0.0 | 0.0 | 0.00 | 0.00 | 0.00 | 49 | 1015.1 |
| 20260508010009 | 65 | 87 | 0.0 | 0.0 | 0.00 | 0.00 | 0.00 | 52 | 1015.3 |
| 20260508004502 | 65 | 87 | 0.0 | 0.0 | 0.00 | 0.00 | 0.00 | 51 | 1015.4 |
| 20260508003002 | 65 | 90 | 0.0 | 0.0 | 0.00 | 0.00 | 0.00 | 51 | 1015.3 |
| 20260508001501 | 65 | 90 | 0.0 | 0.0 | 0.00 | 0.00 | 0.00 | 53 | 1015.4 |
| 20260508000121 | 65 | 90 | 0.0 | 0.0 | 0.00 | 0.00 | 0.00 | 51 | 1015.4 |
| 20260507234558 | 65 | 90 | 0.0 | 0.0 | 0.00 | 0.00 | 0.00 | 49 | 1015.6 |
| 20260507233057 | 65 | 90 | 0.0 | 0.0 | 0.00 | 0.00 | 0.00 | 49 | 1016.0 |
| 20260507231609 | 65 | 138 | 0.0 | 0.0 | 0.00 | 0.00 | 0.00 | 50 | 1016.1 |
| 20260507230056 | 65 | 138 | 0.0 | 0.0 | 0.00 | 0.00 | 0.00 | 56 | 1016.0 |
| 20260507224553 | 65 | 138 | 0.0 | 0.0 | 0.00 | 0.00 | 0.00 | 55 | 1016.3 |
| 20260507223052 | 65 | 138 | 0.0 | 0.0 | 0.00 | 0.00 | 0.00 | 52 | 1016.3 |
| 20260507221558 | 65 | 138 | 0.0 | 0.0 | 0.00 | 0.00 | 0.00 | 53 | 1016.3 |
| 20260507220052 | 65 | 145 | 1.7 | 0.0 | 0.00 | 0.00 | 0.00 | 53 | 1016.4 |
| 20260507214549 | 66 | 141 | 2.6 | 0.0 | 0.00 | 0.00 | 0.00 | 50 | 1016.7 |
| 20260507213047 | 66 | 128 | 0.9 | 0.0 | 0.00 | 0.00 | 0.00 | 49 | 1016.7 |
| 20260507211555 | 66 | 130 | 2.6 | 0.0 | 0.00 | 0.00 | 0.00 | 48 | 1016.8 |
| 20260507210047 | 66 | 229 | 3.5 | 0.0 | 0.00 | 0.00 | 0.00 | 45 | 1016.8 |
| 20260507204542 | 67 | 224 | 3.5 | 0.0 | 0.00 | 0.00 | 0.00 | 39 | 1016.7 |
| 20260507203041 | 68 | 135 | 1.7 | 0.0 | 0.00 | 0.00 | 0.00 | 34 | 1016.9 |
| 20260507201539 | 68 | 75 | 0.0 | 0.0 | 0.00 | 0.00 | 0.00 | 33 | 1016.7 |
| 20260507200041 | 68 | 75 | 1.7 | 0.0 | 0.00 | 0.00 | 0.00 | 34 | 1016.7 |
| 20260507194539 | 68 | 74 | 0.0 | 0.0 | 0.00 | 0.00 | 0.00 | 42 | 1016.7 |
| 20260507193037 | 68 | 80 | 0.0 | 0.0 | 0.00 | 0.00 | 0.00 | 43 | 1016.6 |
| 20260507191537 | 69 | 117 | 0.0 | 0.0 | 0.00 | 0.00 | 0.00 | 37 | 1016.5 |
| 20260507190039 | 69 | 101 | 0.9 | 0.0 | 0.00 | 0.00 | 0.00 | 33 | 1016.4 |
| 20260507184535 | 68 | 121 | 0.9 | 0.0 | 0.00 | 0.00 | 0.00 | 34 | 1016.5 |
| 20260507183036 | 68 | 136 | 2.6 | 0.0 | 0.00 | 0.00 | 0.00 | 35 | 1016.3 |
| 20260507181534 | 68 | 148 | 1.7 | 0.0 | 0.00 | 0.00 | 0.00 | 39 | 1016.3 |
| 20260507180034 | 68 | 190 | 2.6 | 0.0 | 0.00 | 0.00 | 0.00 | 40 | 1016.3 |
| 20260507174546 | 68 | 121 | 2.6 | 0.0 | 0.00 | 0.00 | 0.00 | 41 | 1016.2 |
| 20260507173033 | 68 | 165 | 4.3 | 0.0 | 0.00 | 0.00 | 0.00 | 42 | 1016.2 |
| 20260507171542 | 70 | 148 | 4.3 | 0.0 | 0.00 | 0.00 | 0.00 | 38 | 1016.3 |
| 20260507170032 | 70 | 140 | 2.6 | 0.0 | 0.00 | 0.00 | 0.00 | 32 | 1015.7 |
| 20260507164531 | 70 | 175 | 4.3 | 0.0 | 0.00 | 0.00 | 0.00 | 33 | 1015.6 |
| 20260507163031 | 70 | 117 | 2.6 | 0.0 | 0.00 | 0.00 | 0.00 | 34 | 1015.7 |
| 20260507161533 | 70 | 148 | 3.5 | 0.0 | 0.00 | 0.00 | 0.00 | 36 | 1015.8 |
| 20260507160038 | 71 | 156 | 5.2 | 0.0 | 0.00 | 0.00 | 0.00 | 34 | 1015.6 |
| 20260507154529 | 71 | 141 | 5.2 | 0.0 | 0.00 | 0.00 | 0.00 | 34 | 1015.8 |
| 20260507153029 | 71 | 157 | 5.2 | 0.0 | 0.00 | 0.00 | 0.00 | 34 | 1016.0 |
| 20260507151529 | 71 | 168 | 4.3 | 0.0 | 0.00 | 0.00 | 0.00 | 35 | 1016.3 |
| 20260507150036 | 71 | 165 | 4.3 | 0.0 | 0.00 | 0.00 | 0.00 | 35 | 1016.2 |
| 20260507144528 | 71 | 136 | 6.1 | 0.0 | 0.00 | 0.00 | 0.00 | 35 | 1016.1 |
| 20260507143027 | 71 | 235 | 5.2 | 0.0 | 0.00 | 0.00 | 0.00 | 37 | 1016.2 |
| 20260507141526 | 71 | 171 | 6.1 | 0.0 | 0.00 | 0.00 | 0.00 | 34 | 1016.1 |
| 20260507140036 | 72 | 213 | 6.1 | 0.0 | 0.00 | 0.00 | 0.00 | 36 | 1015.8 |
| 20260507134525 | 73 | 142 | 7.0 | 0.0 | 0.00 | 0.00 | 0.00 | 31 | 1015.7 |
| 20260507133024 | 73 | 150 | 6.1 | 0.0 | 0.00 | 0.00 | 0.00 | 29 | 1015.6 |
| 20260507131540 | 73 | 172 | 7.0 | 0.0 | 0.00 | 0.00 | 0.00 | 32 | 1015.5 |
| 20260507130022 | 73 | 140 | 6.1 | 0.0 | 0.00 | 0.00 | 0.00 | 32 | 1015.7 |
| 20260507124522 | 73 | 158 | 4.3 | 0.0 | 0.00 | 0.00 | 0.00 | 34 | 1016.1 |
| 20260507123026 | 72 | 156 | 4.3 | 0.0 | 0.00 | 0.00 | 0.00 | 39 | 1016.2 |
| 20260507121519 | 73 | 190 | 6.1 | 0.0 | 0.00 | 0.00 | 0.00 | 38 | 1016.3 |
| 20260507120028 | 73 | 155 | 5.2 | 0.0 | 0.00 | 0.00 | 0.00 | 39 | 1016.3 |